Weather History for Tupelo, MS

Change the Weather History Date:

Tuesday, December 25, 2012

  Actual Average Record
Temperature  
Mean Temperature 50 °F 42 °F  
Max Temperature 54 °F 52 °F 78 °F (1987)
Min Temperature 45 °F 33 °F 0 °F (1983)
Degree Days  
Heating Degree Days 15 23  
Month to date heating degree days 304 513  
Since 1 July heating degree days 923 1035  
Cooling Degree Days 0 0  
Month to date cooling degree days 1 0  
Year to date cooling degree days 2203 2044  
Moisture  
Dew Point 45 °F    
Average Humidity 88    
Maximum Humidity 93    
Minimum Humidity 83    
Precipitation  
Precipitation 1.75 in 0.19 in 4.10 in (1951)
Month to date precipitation 6.44 5.25  
Year to date precipitation 49.12 53.98  
Snow  
Snow 0.00 in 0.00 in T in (1989)
Month to date snowfall 0.0 0.2  
Since 1 July snowfall 0.0 0.2  
Snow Depth 0.00 in    
Sea Level Pressure  
Sea Level Pressure 29.73 in    
Wind  
Wind Speed 11 mph (ENE)    
Max Wind Speed 31 mph    
Max Gust Speed 40 mph    
Visibility 6 miles    
Events Rain    
T = Trace of Precipitation, MM = Missing Value Source: NWS Daily Summary

Daily Weather History Graph

Daily Weather History Graph

Search for Another Location

Airport:

Trip Planner

Search our weather history database for the weather conditions in past years. The results will help you decide how hot, cold, wet, or windy it might be!

Date:

Astronomy

Dec. 25, 2012 Rise Set
Actual Time 6:59 AM CST 4:51 PM CST
Civil Twilight 6:31 AM CST 5:19 PM CST
Nautical Twilight 6:00 AM CST 5:51 PM CST
Astronomical Twilight 5:29 AM CST 6:21 PM CST
Moon 2:58 PM CST (12/25) 4:33 AM CST (12/25)
Length of Visible Light 10h 48m
Length of Day
9h 52m
Waxing Gibbous, 94% of the Moon is Illuminated
Dec 25
Waxing Gibbous
Dec 28
Full
Jan 4
Last Quarter
Jan 11
New
Jan 18
First Quarter

Hourly Weather History & Observations

Time (CST) Temp. Windchill Dew Point Humidity Pressure Visibility Wind Dir Wind Speed Gust Speed Precip Events Conditions
12:53 AM 48.0 °F - 45.0 °F 89% 29.95 in 10.0 mi NE 6.9 mph - N/A   Mostly Cloudy
1:53 AM 48.0 °F - 44.1 °F 86% 29.96 in 10.0 mi ENE 8.1 mph - N/A   Partly Cloudy
2:53 AM 46.0 °F 41.9 °F 43.0 °F 89% 29.95 in 10.0 mi ENE 8.1 mph - N/A   Clear
3:12 AM 46.4 °F 42.4 °F 44.6 °F 93% 29.96 in 10.0 mi NE 8.1 mph - N/A   Mostly Cloudy
3:20 AM 46.4 °F 41.9 °F 44.6 °F 93% 29.95 in 10.0 mi ENE 9.2 mph - N/A   Mostly Cloudy
3:53 AM 46.9 °F - 44.1 °F 90% 29.94 in 9.0 mi ENE 6.9 mph - N/A   Overcast
4:53 AM 46.9 °F - 45.0 °F 93% 29.91 in 7.0 mi ENE 9.2 mph - N/A   Overcast
5:53 AM 48.0 °F - 45.0 °F 89% 29.93 in 7.0 mi ENE 6.9 mph - N/A   Overcast
6:53 AM 48.0 °F - 46.0 °F 93% 29.95 in 7.0 mi NE 5.8 mph - N/A   Overcast
7:53 AM 48.0 °F - 46.0 °F 93% 29.93 in 6.0 mi NE 9.2 mph - N/A   Overcast
8:53 AM 46.0 °F 40.6 °F 44.1 °F 93% 29.92 in 5.0 mi NE 11.5 mph - N/A   Overcast
9:53 AM 46.0 °F 39.9 °F 43.0 °F 89% 29.94 in 5.0 mi NE 13.8 mph - N/A   Overcast
10:43 AM 44.6 °F 38.4 °F 42.8 °F 93% 29.93 in 4.0 mi NE 12.7 mph - N/A   Overcast
10:53 AM 45.0 °F 39.3 °F 42.1 °F 90% 29.94 in 4.0 mi NE 11.5 mph - N/A   Overcast
11:33 AM 44.6 °F 41.4 °F 42.8 °F 93% 29.92 in 2.0 mi North 5.8 mph - 0.03 in Rain Rain
11:53 AM 45.0 °F 40.6 °F 43.0 °F 93% 29.89 in 2.0 mi NE 8.1 mph - 0.07 in Rain Light Rain
12:04 PM 46.4 °F 42.9 °F 44.6 °F 93% 29.89 in 2.0 mi NE 6.9 mph - 0.01 in Rain Light Rain
12:20 PM 44.6 °F 40.2 °F 44.6 °F 100% 29.87 in 1.8 mi NE 8.1 mph - 0.04 in Rain Rain
12:34 PM 46.4 °F 42.9 °F 44.6 °F 93% 29.85 in 1.2 mi ENE 6.9 mph - 0.11 in Rain Heavy Rain
12:46 PM 46.4 °F 41.9 °F 44.6 °F 93% 29.84 in 1.8 mi East 9.2 mph - 0.17 in Rain Rain
12:53 PM 46.9 °F - 45.0 °F 93% 29.84 in 1.8 mi East 9.2 mph - 0.21 in Rain Heavy Rain
1:05 PM 46.4 °F 43.5 °F 46.4 °F 100% 29.85 in 2.0 mi East 5.8 mph - 0.08 in Rain Heavy Rain
1:53 PM 46.9 °F - 45.0 °F 93% 29.81 in 3.0 mi East 10.4 mph - 0.38 in Rain Rain
2:04 PM 46.4 °F 40.7 °F 44.6 °F 93% 29.79 in 2.5 mi East 12.7 mph - 0.06 in Rain Heavy Rain
2:22 PM 46.4 °F 39.8 °F 44.6 °F 93% 29.76 in 4.0 mi East 16.1 mph - 0.13 in Rain Rain
2:53 PM 46.9 °F - 45.0 °F 93% 29.72 in 6.0 mi East 17.3 mph 24.2 mph 0.21 in Rain Rain
3:53 PM 46.9 °F - 45.0 °F 93% 29.68 in 5.0 mi East 12.7 mph - 0.17 in Rain Rain
4:38 PM 48.2 °F - 46.4 °F 93% 29.67 in 3.0 mi NE 15.0 mph 18.4 mph 0.32 in Rain Heavy Rain
4:48 PM 48.2 °F - 46.4 °F 93% 29.65 in 3.0 mi ENE 12.7 mph - 0.41 in Rain Heavy Rain
4:53 PM 48.0 °F - 46.0 °F 93% 29.64 in 3.0 mi NE 16.1 mph 21.9 mph 0.46 in Rain Heavy Rain
5:14 PM 48.2 °F - 46.4 °F 93% 29.59 in 2.5 mi East 21.9 mph 28.8 mph 0.18 in Rain Heavy Rain
5:25 PM 48.2 °F - 46.4 °F 93% 29.48 in 4.0 mi East 31.1 mph 40.3 mph 0.24 in Rain Rain
5:30 PM 48.2 °F - 46.4 °F 93% 29.51 in 6.0 mi East 19.6 mph 40.3 mph 0.24 in Rain Light Rain
5:43 PM 48.2 °F - 46.4 °F 93% 29.55 in 10.0 mi ENE 12.7 mph 31.1 mph 0.25 in   Mostly Cloudy
5:53 PM 48.0 °F - 46.0 °F 93% 29.56 in 10.0 mi ENE 13.8 mph 24.2 mph 0.25 in   Overcast
6:01 PM 48.2 °F - 46.4 °F 93% 29.56 in 10.0 mi East 16.1 mph 21.9 mph N/A   Overcast
6:53 PM 48.9 °F - 46.0 °F 90% 29.52 in 10.0 mi ENE 16.1 mph 21.9 mph N/A   Overcast
7:53 PM 48.9 °F - 46.0 °F 90% 29.48 in 10.0 mi ENE 11.5 mph - N/A   Overcast
8:53 PM 50.0 °F - 46.9 °F 89% 29.46 in 10.0 mi Variable 4.6 mph - N/A   Overcast
9:39 PM 50.0 °F - 48.2 °F 94% 29.47 in 10.0 mi Calm Calm - N/A   Overcast
9:48 PM 50.0 °F - 48.2 °F 94% 29.48 in 10.0 mi SSE 3.5 mph - N/A   Overcast
9:53 PM 50.0 °F - 48.0 °F 93% 29.47 in 10.0 mi ESE 6.9 mph - N/A   Overcast
10:03 PM 50.0 °F - 48.2 °F 94% 29.47 in 10.0 mi WNW 4.6 mph - N/A   Overcast
10:32 PM 51.8 °F - 48.2 °F 88% 29.45 in 10.0 mi South 8.1 mph - N/A   Mostly Cloudy
10:53 PM 53.1 °F - 48.9 °F 86% 29.43 in 10.0 mi SW 11.5 mph - N/A   Partly Cloudy
11:30 PM 51.8 °F - 44.6 °F 76% 29.45 in 10.0 mi WSW 20.7 mph 34.5 mph N/A   Overcast
11:53 PM 50.0 °F - 41.0 °F 71% 29.45 in 10.0 mi WSW 19.6 mph 32.2 mph N/A   Overcast